Los Alamos, NM

10:02 PM MST on February 23, 2018 (GMT -0700)
Los Alamos

Weather History for KLAM - June, 2013

Change the Weather History Date:

Thursday, June 20, 2013

  Actual Average Record
Temperature  
Mean Temperature 74 °F -  
Max Temperature 85 °F 80 °F 92 °F (1981)
Min Temperature 62 °F 53 °F 42 °F (1979)
Cooling Degree Days 8    
Growing Degree Days 24 (Base 50)    
Moisture  
Dew Point 23 °F    
Average Humidity 21    
Maximum Humidity 60    
Minimum Humidity 5    
Precipitation  
Precipitation 0.00 in - - ()
Sea Level Pressure  
Sea Level Pressure 30.14 in    
Wind  
Wind Speed 10 mph (SSW)    
Max Wind Speed 21 mph    
Max Gust Speed 34 mph    
Visibility 10 miles    
Events      
Averages and records for this station are not official NWS values.
T = Trace of Precipitation, MM = Missing Value Source: NWS Daily Summary

Daily Weather History Graph

Daily Weather History Graph

Search for Another Location

Airport or City:

Trip Planner

Search our weather history database for the weather conditions in past years. The results will help you decide how hot, cold, wet, or windy it might be!

Date:

Astronomy

Jun. 20, 2013 Rise Set
Actual Time 5:48 AM MDT 8:24 PM MDT
Civil Twilight 5:18 AM MDT 8:54 PM MDT
Nautical Twilight 4:41 AM MDT 9:32 PM MDT
Astronomical Twilight 3:59 AM MDT 10:14 PM MDT
Moon 5:33 PM MDT (6/20) 3:13 AM MDT (6/20)
Length of Visible Light 15h 36m
Length of Day
14h 35m
Waxing Gibbous, 89% of the Moon is Illuminated
Jun 20
Waxing Gibbous
Jun 23
Full
Jun 29
Last Quarter
Jul 8
New
Jul 15
First Quarter

Hourly Weather History & Observations

Time (MDT) Temp. Dew Point Humidity Pressure Visibility Wind Dir Wind Speed Gust Speed Precip Events Conditions
12:15 AM 73.8 °F 11.5 °F 9% 30.12 in 10.0 mi SSE 12.7 mph 19.6 mph N/A   Clear
12:35 AM 70.7 °F 33.3 °F 25% 30.13 in 10.0 mi SSE 9.2 mph - N/A   Clear
12:55 AM 68.9 °F 37.9 °F 32% 30.14 in 10.0 mi South 8.1 mph - N/A   Clear
1:15 AM 67.6 °F 45.9 °F 46% 30.15 in 10.0 mi South 8.1 mph - N/A   Clear
1:35 AM 66.7 °F 47.3 °F 50% 30.15 in 10.0 mi South 9.2 mph - N/A   Clear
1:55 AM 65.8 °F 47.5 °F 52% 30.14 in 10.0 mi SSW 9.2 mph - N/A   Clear
2:15 AM 66.0 °F 44.1 °F 45% 30.14 in 10.0 mi SSW 8.1 mph - N/A   Clear
2:35 AM 68.0 °F 36.1 °F 31% 30.13 in 10.0 mi South 10.4 mph - N/A   Clear
2:55 AM 67.1 °F 40.8 °F 38% 30.13 in 10.0 mi South 10.4 mph 16.1 mph N/A   Clear
3:15 AM 66.2 °F 44.1 °F 45% 30.13 in 10.0 mi South 9.2 mph - N/A   Clear
3:35 AM 65.7 °F 45.1 °F 47% 30.13 in 10.0 mi South 9.2 mph - N/A   Clear
3:55 AM 64.8 °F 45.7 °F 50% 30.13 in 10.0 mi South 10.4 mph - N/A   Clear
4:15 AM 64.4 °F 47.3 °F 54% 30.13 in 10.0 mi South 9.2 mph - N/A   Clear
4:35 AM 63.9 °F 47.7 °F 56% 30.13 in 10.0 mi South 9.2 mph - N/A   Clear
4:55 AM 63.1 °F 47.5 °F 57% 30.13 in 10.0 mi South 8.1 mph - N/A   Clear
5:15 AM 65.7 °F 27.1 °F 23% 30.13 in 10.0 mi SW 6.9 mph - N/A   Clear
5:35 AM 66.6 °F 21.7 °F 18% 30.14 in 10.0 mi South 6.9 mph - N/A   Clear
5:55 AM 68.5 °F 13.3 °F 12% 30.15 in 10.0 mi SSE 5.8 mph - N/A   Clear
6:15 AM 63.3 °F 44.4 °F 50% 30.15 in 10.0 mi South 6.9 mph - N/A   Clear
6:35 AM 62.6 °F 48.6 °F 60% 30.16 in 10.0 mi South 8.1 mph - N/A   Clear
6:55 AM 62.6 °F 48.4 °F 60% 30.17 in 10.0 mi South 8.1 mph - N/A   Clear
7:15 AM 63.5 °F 47.3 °F 56% 30.17 in 10.0 mi South 6.9 mph - N/A   Clear
7:35 AM 65.5 °F 44.6 °F 47% 30.18 in 10.0 mi South 4.6 mph - N/A   Clear
7:55 AM 67.5 °F 42.3 °F 40% 30.19 in 10.0 mi SSE 6.9 mph - N/A   Clear
8:15 AM 69.3 °F 38.8 °F 33% 30.20 in 10.0 mi Calm Calm - N/A   Clear
8:35 AM 70.7 °F 40.5 °F 33% 30.21 in 10.0 mi Calm Calm - N/A   Clear
8:55 AM 69.8 °F 43.3 °F 38% 30.21 in 10.0 mi East 8.1 mph - N/A   Clear
9:15 AM 71.6 °F 41.5 °F 34% 30.21 in 10.0 mi NE 5.8 mph - N/A   Clear
9:35 AM 73.2 °F 39.6 °F 30% 30.21 in 10.0 mi North 8.1 mph - N/A   Clear
9:55 AM 73.9 °F 30.9 °F 21% 30.21 in 10.0 mi SSE 9.2 mph 16.1 mph N/A   Clear
10:15 AM 75.7 °F 25.0 °F 15% 30.21 in 10.0 mi South 11.5 mph - N/A   Clear
10:35 AM 75.9 °F 24.4 °F 15% 30.20 in 10.0 mi SSE 11.5 mph 17.3 mph N/A   Clear
10:55 AM 77.2 °F 22.8 °F 13% 30.20 in 10.0 mi South 13.8 mph 23.0 mph N/A   Clear
11:15 AM 77.4 °F 23.2 °F 13% 30.20 in 10.0 mi South 8.1 mph 21.9 mph N/A   Clear
11:35 AM 77.5 °F 21.7 °F 13% 30.20 in 10.0 mi SSW 13.8 mph 23.0 mph N/A   Clear
11:55 AM 78.6 °F 19.8 °F 11% 30.20 in 10.0 mi South 12.7 mph 31.1 mph N/A   Clear
12:15 PM 79.3 °F 16.0 °F 9% 30.19 in 10.0 mi SSE 6.9 mph 17.3 mph N/A   Clear
12:35 PM 80.2 °F 14.7 °F 9% 30.18 in 10.0 mi SSE 20.7 mph 26.5 mph N/A   Clear
12:55 PM 80.8 °F 15.3 °F 9% 30.18 in 10.0 mi SSE 9.2 mph 20.7 mph N/A   Clear
1:15 PM 81.3 °F 13.5 °F 8% 30.17 in 10.0 mi South 11.5 mph 24.2 mph N/A   Clear
1:35 PM 82.2 °F 13.3 °F 7% 30.16 in 10.0 mi SSW 17.3 mph 20.7 mph N/A   Clear
1:55 PM 82.9 °F 13.3 °F 7% 30.16 in 10.0 mi SW 9.2 mph 26.5 mph N/A   Clear
2:15 PM 82.6 °F 14.0 °F 8% 30.15 in 10.0 mi SSW 10.4 mph 23.0 mph N/A   Clear
2:35 PM 84.2 °F 13.1 °F 7% 30.15 in 10.0 mi South 12.7 mph 23.0 mph N/A   Clear
2:55 PM 83.8 °F 11.5 °F 7% 30.15 in 10.0 mi South 11.5 mph 24.2 mph N/A   Clear
3:15 PM 84.0 °F 12.2 °F 7% 30.14 in 10.0 mi SW 8.1 mph 18.4 mph N/A   Clear
3:35 PM 84.6 °F 13.5 °F 7% 30.14 in 10.0 mi South 13.8 mph 23.0 mph N/A   Clear
3:55 PM 84.6 °F 12.4 °F 7% 30.13 in 10.0 mi SW 10.4 mph 23.0 mph N/A   Clear
4:15 PM 84.2 °F 11.1 °F 6% 30.13 in 10.0 mi South 13.8 mph 34.5 mph N/A   Clear
4:35 PM 85.6 °F 10.9 °F 6% 30.12 in 10.0 mi South 11.5 mph 26.5 mph N/A   Clear
4:55 PM 84.6 °F 10.4 °F 6% 30.12 in 10.0 mi SSW 9.2 mph 19.6 mph N/A   Clear
5:15 PM 84.7 °F 9.3 °F 6% 30.11 in 10.0 mi SSW 13.8 mph 23.0 mph N/A   Clear
5:35 PM 85.1 °F 9.3 °F 6% 30.10 in 10.0 mi South 12.7 mph 26.5 mph N/A   Clear
5:55 PM 85.6 °F 8.8 °F 6% 30.09 in 10.0 mi SSW 11.5 mph 20.7 mph N/A   Clear
6:15 PM 85.6 °F 8.6 °F 5% 30.08 in 10.0 mi SW 11.5 mph 20.7 mph N/A   Clear
6:35 PM 85.3 °F 7.3 °F 5% 30.08 in 10.0 mi South 8.1 mph - N/A   Clear
6:55 PM 84.9 °F 6.3 °F 5% 30.08 in 10.0 mi SSW 11.5 mph 21.9 mph N/A   Clear
7:15 PM 84.6 °F 4.6 °F 5% 30.08 in 10.0 mi South 16.1 mph 24.2 mph N/A   Clear
7:35 PM 83.3 °F 8.4 °F 6% 30.08 in 10.0 mi SSE 11.5 mph - N/A   Clear
7:55 PM 82.8 °F 8.4 °F 6% 30.08 in 10.0 mi SSE 8.1 mph - N/A   Clear
8:15 PM 81.9 °F 8.1 °F 6% 30.09 in 10.0 mi SSE 4.6 mph - N/A   Clear
8:35 PM 79.9 °F 7.9 °F 6% 30.10 in 10.0 mi West 6.9 mph - N/A   Clear
8:55 PM 79.7 °F 8.2 °F 7% 30.10 in 10.0 mi West 10.4 mph - N/A   Clear
9:15 PM 78.3 °F 7.9 °F 7% 30.10 in 10.0 mi West 10.4 mph - N/A   Clear
9:35 PM 77.5 °F 8.2 °F 7% 30.11 in 10.0 mi West 10.4 mph - N/A   Clear
9:55 PM 77.5 °F 7.5 °F 7% 30.12 in 10.0 mi West 11.5 mph - N/A   Clear
10:15 PM 77.9 °F 6.6 °F 6% 30.13 in 10.0 mi West 12.7 mph 17.3 mph N/A   Clear
10:35 PM 77.4 °F 6.4 °F 7% 30.13 in 10.0 mi West 11.5 mph 19.6 mph N/A   Clear
10:55 PM 77.0 °F 6.4 °F 7% 30.13 in 10.0 mi West 13.8 mph 19.6 mph N/A   Clear
11:15 PM 77.0 °F 6.6 °F 7% 30.13 in 10.0 mi West 17.3 mph 25.3 mph N/A   Clear
11:35 PM 76.1 °F 7.3 °F 7% 30.13 in 10.0 mi West 17.3 mph 26.5 mph N/A   Clear
11:55 PM 75.9 °F 7.5 °F 7% 30.13 in 10.0 mi West 16.1 mph - N/A   Clear